This is the latest recevied weather packets stored in our database for station/object PU5FJO-13. If no packets are shown the sender has not sent any weather packets the latest 10 day(s).
| Time | Temp. | Humidity | Pressure | Rain* | Wind** | Luminosity | Snow |
|---|---|---|---|---|---|---|---|
| 1777187764 | 21.67° C | 80% | 1010.9 hPa | - | - | - | - |
| 1777187164 | 22.22° C | 79% | 1010.6 hPa | - | - | - | - |
| 1777186564 | 22.78° C | 76% | 1010.6 hPa | - | - | - | - |
| 1777185964 | 22.22° C | 77% | 1010.8 hPa | - | - | - | - |
| 1777185364 | 22.22° C | 77% | 1010.7 hPa | - | - | - | - |
| 1777184764 | 22.78° C | 76% | 1010.8 hPa | - | - | - | - |
| 1777184164 | 22.78° C | 76% | 1010.9 hPa | - | - | - | - |
| 1777183564 | 22.78° C | 77% | 1011 hPa | - | - | - | - |
| 1777182964 | 22.78° C | 76% | 1011 hPa | - | - | - | - |
| 1777182364 | 22.22° C | 77% | 1011.2 hPa | - | - | - | - |
| 1777181764 | 21.67° C | 79% | 1011.3 hPa | - | - | - | - |
| 1777181164 | 22.22° C | 78% | 1011.2 hPa | - | - | - | - |
| 1777180564 | 22.22° C | 78% | 1011.1 hPa | - | - | - | - |
| 1777179964 | 22.78° C | 75% | 1011.1 hPa | - | - | - | - |
| 1777179364 | 22.22° C | 77% | 1011.4 hPa | - | - | - | - |
| 1777178764 | 21.67° C | 79% | 1011.5 hPa | - | - | - | - |
| 1777178164 | 22.78° C | 74% | 1011.5 hPa | - | - | - | - |
| 1777177564 | 22.22° C | 75% | 1011.5 hPa | - | - | - | - |
| 1777176964 | 22.22° C | 76% | 1011.5 hPa | - | - | - | - |
| 1777176364 | 21.67° C | 79% | 1011.6 hPa | - | - | - | - |
| 1777175764 | 21.67° C | 78% | 1011.9 hPa | - | - | - | - |
| 1777175164 | 22.78° C | 74% | 1011.7 hPa | - | - | - | - |
| 1777174564 | 22.78° C | 74% | 1011.9 hPa | - | - | - | - |
| 1777173964 | 22.22° C | 76% | 1012.1 hPa | - | - | - | - |
| 1777173364 | 22.22° C | 76% | 1012.1 hPa | - | - | - | - |
* Rain since midnight (hover to see other rain measurements)
** Current wind speed in m/s (hover to see current wind gust speed)